Regional Weather Roundup
Issued by NWS

Home | Current Version | Previous Version | Text Only | Print | Product List | Glossary On
Versions: 1 2 3 4 5 6 7 8 9 10 11 12 13 14 15 16 17 18 19 20 21 22 23 24 25 26 27 28 29 30 31 32 33 34 35 36 37 38 39 40 41 42 43 44 45 46 47 48 49 50
000
ASUS43 KOAX 160102
RWRNE

WEATHER ROUNDUP FOR NEBRASKA
NATIONAL WEATHER SERVICE OMAHA NE
700 PM CST MON JAN 15 2018

NOTES: SATELLITE DATA IS BEING USED TO AUGMENT CLOUD COVER ABOVE
       12000 FEET.
       "FAIR" INDICATES FEW OR NO CLOUDS BELOW 12,000 FEET WITH NO
       SIGNIFICANT WEATHER AND/OR OBSTRUCTIONS TO VISIBILITY.


NEZ001>004-019>022-054>056-160200-
NEBRASKA PANHANDLE

CITY           SKY/WX    TMP DP  RH WIND       PRES   REMARKS
SCOTTSBLUFF    PTCLDY     7  -3  64 N5        30.60R WCI  -2
ALLIANCE       CLEAR     -2  -7  79 NW6       30.59R WCI -14
CHADRON        PTCLDY    -1  -7  75 E5        30.68R WCI -11
GORDON         FAIR      -2  -9  71 NW10      30.62S WCI -19
KIMBALL        CLEAR      8  -1  66 NW9       30.51R WCI  -6
SIDNEY         PTCLDY     3  -3  76 N10       30.55R WCI -12
$$

NEZ057>060-069>072-079>082-160200-
SOUTHWEST NEBRASKA

CITY           SKY/WX    TMP DP  RH WIND       PRES   REMARKS
NORTH PLATTE   CLEAR      4  -7  60 NW16      30.65R WCI -15
IMPERIAL       CLEAR      6  -3  66 N15       30.63R WCI -12
LEXINGTON      PTCLDY     5  -5  64 NW15      30.65R WCI -13
MCCOOK         PTCLDY     6  -4  63 NW13      30.66R WCI -10
OGALLALA       PTCLDY     6  -3  67 NW7       30.64R WCI  -5
$$

NEZ005>010-023>029-035>040-094-160200-
NORTH CENTRAL NEBRASKA

CITY           SKY/WX    TMP DP  RH WIND       PRES   REMARKS
VALENTINE      CLEAR      0  -8  69 NW18G24   30.68R WCI -21
AINSWORTH      MOCLDY     0  -7  72 NW18G24   30.66R WCI -21
BROKEN BOW     CLEAR      2  -8  63 NW15      30.63R WCI -17
O`NEILL        CLOUDY     1  -6  75 NW23G30   30.65R WCI -23
ORD            PTCLDY     2  -7  66 NW20G31   30.64R WCI -19
THEDFORD       PTCLDY     1  -6  71 NW13      30.64R WCI -16
$$

NEZ041-046>049-061>064-073>077-083>087-160200-
SOUTH CENTRAL NEBRASKA

CITY           SKY/WX    TMP DP  RH WIND       PRES   REMARKS
GRAND ISLAND   CLEAR      2  -6  69 N21       30.64R WCI -20
AURORA         PTCLDY     2  -5  71 N21       30.65R WCI -20
HASTINGS       MOCLDY     3  -7  63 NW22G29   30.65R WCI -19
HEBRON         MOCLDY     5  -4  67 NW10      30.68R WCI -10
HOLDREGE       CLEAR      4  -4  69 N14G22    30.63R WCI -13
KEARNEY        PTCLDY     2  -6  69 N13       30.66R WCI -15
YORK           CLEAR      1  -4  78 N14G20    30.64R WCI -17
$$

NEZ011>018-030>034-042>045-160200-
NORTHEAST NEBRASKA

CITY           SKY/WX    TMP DP  RH WIND       PRES   REMARKS
NORFOLK        CLEAR     -3  -9  75 NW16      30.64R WCI -24
ALBION         CLEAR      1  -6  74 NW17      30.64R WCI -20
BLAIR          CLEAR     -1 -10  68 NW21      30.62R WCI -24
COLUMBUS       CLEAR     -1  -9  68 NW17      30.67R WCI -22
FREMONT        CLEAR     -1  -9  67 NW20G26   30.65R WCI -23
TEKAMAH        CLEAR     -2 -11  65 NW17      30.66S WCI -23
WAYNE          CLEAR     -3 -11  68 NW13G20   30.65R WCI -22
$$

NEZ050>053-065>068-078-088>093-160200-
SOUTHEAST NEBRASKA

CITY           SKY/WX    TMP DP  RH WIND       PRES   REMARKS
LINCOLN        PTCLDY     2  -8  63 N17G25    30.69R WCI -18
OMAHA EPPLEY   PTCLDY    -1 -10  65 NW17      30.66R WCI -22
BEATRICE       MOCLDY     5  -3  70 N18G25    30.66S WCI -15
FALLS CITY     CLEAR      3  -8  60 N15G25    30.66R WCI -16
NEBRASKA CITY  CLEAR      1  -4  80 N12       30.65R WCI -16
PLATTSMOUTH    PTCLDY     0  -8  69 NW23G29   30.64R WCI -24
$$

NEZ044-045-051>053-067-160200-
OMAHA AREA

CITY           SKY/WX    TMP DP  RH WIND       PRES   REMARKS
OMAHA EPPLEY   PTCLDY    -1 -10  65 NW17      30.66R WCI -22
BLAIR          CLEAR     -1 -10  68 NW21      30.62R WCI -24
FREMONT        CLEAR     -1  -9  67 NW20G26   30.65R WCI -23
MILLARD        CLEAR      1  -9  60 NW14G20   30.67R WCI -17
OFFUTT AFB     CLEAR     -1 -12  59 NW13G26   30.66R WCI -19
PLATTSMOUTH    PTCLDY     0  -8  69 NW23G29   30.64R WCI -24
WAHOO          FAIR       1 -10  62 NW20      30.66R WCI -21
$$



USA.gov is the U.S. government's official web portal to all federal, state and local government web resources and services.